This demonstration page uses our WeatherBlox Daily Observations layout. Learn more.

Left ArrowRight Arrow

Hourly Observations for September 28, 2019

Temp ( °F °C ) Dew Point ( °F °C ) Humidity (%) Winds ( mph kmh ) Pressure ( in mb ) Visibility ( mi km ) Precip ( " mm )
12:59 am 00:59 Mostly Cloudy 74 23.3 68 20 82 82 SE 7 11 30.12 1020 10 16 0.00 0.00
1:59 am 01:59 Mostly Cloudy 75 23.9 68 20 79 79 SE 6 9 30.10 1019 10 16 0.00 0.00
2:21 am 02:21 Mostly Cloudy 75 23.9 68 20 79 79 SE 7 11 30.10 1019 10 16 0.00 0.00
2:59 am 02:59 Mostly Cloudy 75 23.9 68 20 79 79 SE 3 6 30.10 1019 10 16 0.00 0.00
3:59 am 03:59 Mostly Cloudy 74 23.3 68 20 82 82 Calm 30.09 1019 10 16 0.00 0.00
4:59 am 04:59 Mostly Cloudy 74 23.3 69 20.6 85 85 SE 5 7 30.10 1019 10 16 0.00 0.00
5:59 am 05:59 Mostly Cloudy 74 23.3 69 20.6 85 85 SSE 5 7 30.12 1020 10 16 0.00 0.00
6:59 am 06:59 Mostly Cloudy 74 23.3 70 21.1 88 88 S 5 7 30.13 1020 10 16 0.00 0.00
7:43 am 07:43 Mostly Cloudy 75 23.9 71 21.7 88 88 VRB 3 6 30.14 1021 10 16 0.00 0.00
7:59 am 07:59 Mostly Cloudy 75 23.9 71 21.7 88 88 S 7 11 30.14 1021 10 16 0.00 0.00
8:41 am 08:41 Mostly Cloudy 76 24.4 72 22.2 88 88 WSW 8 13 30.15 1021 10 16 0.00 0.00
8:59 am 08:59 Mostly Cloudy 76 24.4 72 22.2 88 88 SSW 7 11 30.15 1021 10 16 0.00 0.00
9:59 am 09:59 Mostly Cloudy 77 25 72 22.2 85 85 VRB 6 9 30.15 1021 9 14 0.00 0.00
10:59 am 10:59 Cloudy 79 26.1 73 22.8 82 82 SW 7 11 30.16 1021 8 13 0.00 0.00
11:59 am 11:59 Partly Cloudy 81 27.2 73 22.8 77 77 WSW 8 13 30.15 1021 9 14 0.00 0.00
12:59 pm 12:59 Partly Cloudy 84 28.9 74 23.3 72 72 SSW 6 9 30.14 1021 9 14 0.00 0.00
1:59 pm 13:59 Mostly Sunny 87 30.6 74 23.3 65 65 VRB 3 6 30.11 1020 9 14 0.00 0.00
2:59 pm 14:59 Mostly Sunny 89 31.7 73 22.8 59 59 VRB 5 7 30.10 1019 10 16 0.00 0.00
3:59 pm 15:59 Mostly Sunny 86 30 75 23.9 70 70 ENE 10 17 30.09 1019 9 14 0.00 0.00
4:59 pm 16:59 Mostly Sunny 86 30 74 23.3 67 67 E 6 9 30.09 1019 10 16 0.00 0.00
5:59 pm 17:59 Mostly Sunny 87 30.6 71 21.7 59 59 S 8 13 30.08 1019 10 16 0.00 0.00
6:59 pm 18:59 Mostly Cloudy 83 28.3 70 21.1 65 65 S 5 7 30.09 1019 10 16 0.00 0.00
7:59 pm 19:59 Partly Cloudy 83 28.3 70 21.1 65 65 S 7 11 30.09 1019 10 16 0.00 0.00
8:59 pm 20:59 Partly Cloudy 82 27.8 70 21.1 67 67 SSW 7 11 30.09 1019 10 16 0.00 0.00
9:59 pm 21:59 Mostly Cloudy 82 27.8 70 21.1 67 67 SW 7 11 30.11 1020 10 16 0.00 0.00
10:59 pm 22:59 Partly Cloudy 81 27.2 70 21.1 69 69 SW 8 13 30.12 1020 10 16 0.00 0.00
11:59 pm 23:59 Partly Cloudy 80 26.7 70 21.1 71 71 SSW 7 11 30.12 1020 10 16 0.00 0.00

Powered by AerisWeather